Location: Étouvelles
(49.5207°N, 3.5808°E)
Time: 10:07:24
(UTC+00:00)

Meteor 1-11 - Pass Details

Date: 03 February 2023
Orbit: 839 x 888 km, 81.2° (Epoch: 23 March)

Event Time Altitude Azimuth Distance (km) Brightness Sun altitude
Rises 17:46:19 0° 176° (S) 3,482 7.5 -10.3°
Reaches altitude 10° 17:48:47 10° 172° (S) 2,546 6.8 -10.7°
Maximum altitude 17:54:27 57° 96° (E) 1,042 4.4 -11.6°
Drops below altitude 10° 18:00:06 10° 19° (NNE) 2,548 6.4 -12.5°
Sets 18:02:35 0° 16° (NNE) 3,484 7.1 -12.9°
